Regional Weather Roundup
Issued by NWS

Home | Current Version | Previous Version | Text Only | Print | Product List | Glossary On
Versions: 1 2 3 4 5 6 7 8 9 10 11 12 13 14 15 16 17 18 19 20 21 22 23 24 25 26 27 28 29 30 31 32 33 34 35 36 37 38 39 40 41 42 43 44 45 46 47 48 49 50
000
ASUS43 KDMX 231806
RWRIA

WEATHER ROUNDUP FOR IOWA
NATIONAL WEATHER SERVICE DES MOINES IA
100 PM CDT MON OCT 23 2017

NOTE: "FAIR" INDICATES FEW OR NO CLOUDS BELOW 12,000 FEET WITH NO
SIGNIFICANT WEATHER AND/OR OBSTRUCTIONS TO VISIBILITY.

* - THESE STATIONS ARE NOT NWS STATIONS...THUS NOT UNDER NWS
QUALITY CONTROL.  THEY ALSO DO NOT REPORT WEATHER SUCH
AS PRECIPITATION OR FOG.

IAZ001>003-012>014-020>022-031>034-043>046-231900-
   NORTHWEST IOWA

CITY           SKY/WX    TMP DP  RH WIND       PRES   REMARKS
CHEROKEE *     SUNNY     58  35  42 NW18G31   29.94S
DENISON *      SUNNY     61  36  39 NW25G38   29.96S
LE MARS *      PTSUNNY   59  36  41 NW22G32   29.97S
ORANGE CITY *  PTSUNNY   57  39  51 NW24G38   29.96S
SHELDON *      CLOUDY    57  36  44 NW25G39   29.93R
SIOUX CITY     SUNNY     61  36  39 NW35G43   29.97F
6HR MIN TEMP:  52; 6HR MAX TEMP:  62; 6HR PCP: TRACE;

SPENCER        MOSUNNY   59  37  44 NW24G37   29.91R
6HR MIN TEMP:  49; 6HR MAX TEMP:  60; 6HR PCP: TRACE;

STORM LAKE *   SUNNY     61  34  36 NW25G36   29.92S
$$

IAZ055>058-069>071-079>083-090>094-231900-
   SOUTHWEST IOWA

CITY           SKY/WX    TMP DP  RH WIND       PRES   REMARKS
ATLANTIC *     PTSUNNY   59  41  51 NW22G29   29.96R
AUDUBON *      MOSUNNY   59  37  44 NW23G30   29.95S
CLARINDA *     MOSUNNY   63  37  39 NW18G29   29.99S
COUNCIL BLFS * MOSUNNY   63  37  39 NW23G32   29.98F
CRESTON *      CLOUDY    59  41  51 NW16G26   29.94F
HARLAN  *      MOSUNNY   61  37  41 NW21G38   29.99F
LAMONI         LGT RAIN  58  41  53 NW20G36   29.92R
6HR MIN TEMP:  43; 6HR MAX TEMP:  64; 6HR PCP: TRACE;

RED OAK *      PTSUNNY   61  39  44 NW24G33   29.98R
SHENANDOAH *   MOSUNNY   63  37  39 NW18G30   30.00R
$$

IAZ047>049-059>061-072>074-084-231900-
   CENTRAL IOWA

CITY           SKY/WX    TMP DP  RH WIND       PRES   REMARKS
AMES           PTSUNNY   59  45  59 NW15G23   29.88S
6HR MIN TEMP:  39; 6HR MAX TEMP:  62; 6HR PCP: TRACE;

ANKENY *       LGT RAIN  57  46  67 NW10G21   29.89R
BOONE *        CLOUDY    59  43  55 NW15G23   29.88S
CHARITON *     PTSUNNY   63  41  45 NW16G25   29.88R
DES MOINES     PTSUNNY   57  45  64 NW13      29.89R
6HR MIN TEMP:  44; 6HR MAX TEMP:  62; 6HR PCP: TRACE;

GRINNELL*      CLOUDY    55  44  65 NW18      29.86R
KNOXVILLE *    MOSUNNY   61  41  48 NW14G21   29.85R
MARSHALLTOWN   CLOUDY    56  44  64 NW12      29.85R
6HR MIN TEMP:  41; 6HR MAX TEMP:  58; 6HR PCP: TRACE;

NEWTON *       CLOUDY    57  43  58 NW15G21   29.86R
PELLA *        CLOUDY    58  43  57 NW14G20   29.87R
PERRY *          N/A     63  38  39 NW15G24   29.90F
$$

IAZ004>006-015-016-023>025-035-036-231900-
   NORTH CENTRAL IOWA

CITY           SKY/WX    TMP DP  RH WIND       PRES   REMARKS
ALGONA *       SUNNY     61  36  39 NW20G29   29.87S
CLARION *      PTSUNNY   59  41  51 NW17G26   29.86F
ESTHERVILLE    MOSUNNY   58  38  47 NW24G31   29.88R
6HR MIN TEMP:  47; 6HR MAX TEMP:  59; 6HR PCP: TRACE;

FORT DODGE *   SUNNY     61  38  42 NW17G28   29.89F
MASON CITY     CLOUDY    58  41  53 NW20      29.85F
6HR MIN TEMP:  41; 6HR MAX TEMP:  58; 6HR PCP: TRACE;

FOREST CITY *    N/A     59  39  47 NW17G24   29.85F
WEBSTER CITY * CLOUDY    61  39  44 NW17G28   29.86S
IOWA FALLS *   CLOUDY    55  46  73 W6        29.86F
$$

IAZ007>011-017>019-026>030-037>042-050>054-066-231900-
   NORTHEAST IOWA

CITY           SKY/WX    TMP DP  RH WIND       PRES   REMARKS
CEDAR RAPIDS   CLOUDY    56  44  64 NW9G17    29.81F
6HR MIN TEMP:  41; 6HR MAX TEMP:  56;

CHARLES CITY * PTSUNNY   52  43  71 VRB6      29.82F
CLINTON *      CLOUDY    55  48  77 S6        29.78F
DECORAH *      CLOUDY    55  43  62 NW10G21   29.77S
DUBUQUE        CLOUDY    55  44  66 SW12      29.79F
6HR MIN TEMP:  40; 6HR MAX TEMP:  55;

MONTICELLO *   MOSUNNY   57  43  58 W6G13     29.79F
OELWEIN *      CLOUDY    57  46  67 NW23      29.79F
WATERLOO       CLOUDY    54  42  64 NW18G26   29.82R
6HR MIN TEMP:  42; 6HR MAX TEMP:  55;

$$

IAZ064-065-067-068-078-231900-
   EAST CENTRAL IOWA

CITY           SKY/WX    TMP DP  RH WIND       PRES   REMARKS
DAVENPORT      CLOUDY    56  47  71 SW6       29.80F
6HR MIN TEMP:  42; 6HR MAX TEMP:  56;

IOWA CITY      CLOUDY    59  43  55 W10       29.82F
6HR MIN TEMP:  42; 6HR MAX TEMP:  59;

MUSCATINE *    CLOUDY    59  45  58 W15       29.80F
QUAD CITIES    PTSUNNY   57  47  69 S5        29.76F
6HR MIN TEMP:  46; 6HR MAX TEMP:  57;

$$

IAZ062-063-075>077-085>089-095>099-231900-
   SOUTHEAST IOWA

CITY           SKY/WX    TMP DP  RH WIND       PRES   REMARKS
BURLINGTON     CLOUDY    61  48  62 VRB7      29.78F
6HR MIN TEMP:  45; 6HR MAX TEMP:  61;

FAIRFIELD *    CLOUDY    57  41  54 NW10      29.83F
FORT MADISON * CLOUDY    63  45  51 W12       29.80F
KEOKUK *       CLOUDY    63  45  51 W17       29.79F
OSKALOOSA *    PTSUNNY   55  44  68 N9        29.85S
OTTUMWA        CLOUDY    56  44  64 N12       29.84F
6HR MIN TEMP:  41; 6HR MAX TEMP:  57;

WASHINGTON *   CLOUDY    57  45  62 NW10      29.83F
$$

ABBREVIATIONS USED IN REMARKS
   TC - TEMPERATURES IN CELSIUS
  WCI - WIND CHILL INDEX
   HX - HEAT INDEX
  VSB - VISIBILITY
$$





USA.gov is the U.S. government's official web portal to all federal, state and local government web resources and services.